LGX83QV EGLC-EDDR

Flight info

Callsign LGX83QV
Flight time 1h 11m
Altitude 25000
Route SOQQA M87 UMTUM L9 KONAN UL607 REMBA M624 DIK M150 LADAT Z818 IXWIB DCT
Aircraft D328/M-SDFGIRY/S

Departure

Time 2026-04-26 12:26
Airport London City Airport (EGLC)

Arrival

Time 2026-04-26 13:37
Airport Saarbrücken Airport (EDDR)
Time Latitude Longitude Altitude Speed Heading
2026-04-26 11:52 51.50418 0.05064 22 ft 0 kts 326°
2026-04-26 12:21 51.50422 0.05065 22 ft 0 kts 17°
2026-04-26 12:22 51.50433 0.05070 22 ft 3 kts 12°
2026-04-26 12:22 51.50456 0.05050 22 ft 5 kts 300°
2026-04-26 12:22 51.50463 0.04965 22 ft 9 kts 273°
2026-04-26 12:22 51.50467 0.04849 22 ft 8 kts 273°
2026-04-26 12:23 51.50469 0.04775 22 ft 5 kts 273°
2026-04-26 12:23 51.50471 0.04709 22 ft 6 kts 272°
2026-04-26 12:23 51.50474 0.04626 22 ft 8 kts 272°
2026-04-26 12:23 51.50476 0.04529 22 ft 9 kts 272°
2026-04-26 12:24 51.50483 0.04464 22 ft 1 kts 315°
2026-04-26 12:24 51.50484 0.04464 22 ft 0 kts 318°
2026-04-26 12:24 51.50493 0.04452 22 ft 5 kts 326°
2026-04-26 12:25 51.50554 0.04489 22 ft 5 kts 88°
2026-04-26 12:25 51.50554 0.04502 22 ft 0 kts 92°
2026-04-26 12:25 51.50554 0.04504 22 ft 5 kts 92°
2026-04-26 12:25 51.50537 0.05074 22 ft 106 kts 92°
2026-04-26 12:26 51.50487 0.06495 434 ft 138 kts 93°
2026-04-26 12:26 51.50436 0.08057 1205 ft 145 kts 92°
2026-04-26 12:26 51.50398 0.09624 1997 ft 145 kts 88°
2026-04-26 12:26 51.50701 0.11112 2610 ft 148 kts 58°
2026-04-26 12:27 51.51394 0.12480 2971 ft 178 kts 45°
2026-04-26 12:27 51.52521 0.13858 2998 ft 227 kts 33°
2026-04-26 12:27 51.53997 0.15205 3021 ft 264 kts 30°
2026-04-26 12:27 51.55390 0.17324 3016 ft 289 kts 60°
2026-04-26 12:28 51.55953 0.20373 3011 ft 278 kts 82°
2026-04-26 12:28 51.56219 0.23294 2989 ft 248 kts 80°
2026-04-26 12:28 51.56743 0.25813 3000 ft 238 kts 65°
2026-04-26 12:28 51.57454 0.28231 3002 ft 241 kts 64°
2026-04-26 12:29 51.58173 0.30665 3000 ft 242 kts 64°
2026-04-26 12:29 51.58897 0.33118 3003 ft 244 kts 65°
2026-04-26 12:29 51.58784 0.38110 4491 ft 219 kts 114°
2026-04-26 12:30 51.58090 0.40166 5494 ft 213 kts 120°
2026-04-26 12:30 51.57302 0.42165 6312 ft 215 kts 122°
2026-04-26 12:30 51.56470 0.44156 7050 ft 219 kts 123°
2026-04-26 12:31 51.54726 0.48233 8496 ft 227 kts 124°
2026-04-26 12:31 51.53826 0.50325 9185 ft 230 kts 124°
2026-04-26 12:31 51.52922 0.52422 9855 ft 233 kts 124°
2026-04-26 12:31 51.52002 0.54550 10479 ft 236 kts 124°
2026-04-26 12:32 51.51068 0.56707 11103 ft 239 kts 124°
2026-04-26 12:32 51.50114 0.58909 11736 ft 241 kts 125°
2026-04-26 12:32 51.48195 0.63336 12883 ft 246 kts 125°
2026-04-26 12:33 51.47220 0.65583 13423 ft 249 kts 126°
2026-04-26 12:33 51.46223 0.67876 13957 ft 251 kts 126°
2026-04-26 12:33 51.45227 0.70163 14465 ft 254 kts 126°
2026-04-26 12:33 51.44214 0.72493 14959 ft 256 kts 126°
2026-04-26 12:34 51.43191 0.74840 15440 ft 259 kts 126°
2026-04-26 12:34 51.42162 0.77201 15887 ft 262 kts 126°
2026-04-26 12:34 51.41121 0.79587 16335 ft 264 kts 126°
2026-04-26 12:34 51.40064 0.82006 16770 ft 266 kts 126°
2026-04-26 12:35 51.39003 0.84434 17184 ft 269 kts 126°
2026-04-26 12:35 51.37938 0.86869 17587 ft 271 kts 126°
2026-04-26 12:35 51.36852 0.89347 17970 ft 274 kts 126°
2026-04-26 12:35 51.35756 0.91844 18339 ft 277 kts 126°
2026-04-26 12:36 51.34655 0.94354 18728 ft 278 kts 126°
2026-04-26 12:36 51.33546 0.96875 19100 ft 280 kts 126°
2026-04-26 12:36 51.32432 0.99411 19443 ft 282 kts 126°
2026-04-26 12:36 51.31308 1.01964 19779 ft 284 kts 126°
2026-04-26 12:37 51.30162 1.04566 20122 ft 285 kts 126°
2026-04-26 12:37 51.29031 1.07128 20458 ft 286 kts 126°
2026-04-26 12:37 51.27885 1.09726 20762 ft 288 kts 126°
2026-04-26 12:37 51.26726 1.12347 21079 ft 289 kts 126°
2026-04-26 12:38 51.25568 1.14965 21384 ft 290 kts 126°
2026-04-26 12:38 51.24403 1.17595 21665 ft 292 kts 126°
2026-04-26 12:38 51.23227 1.20247 21935 ft 294 kts 126°
2026-04-26 12:38 51.22047 1.22907 22208 ft 295 kts 126°
2026-04-26 12:39 51.20875 1.25545 22471 ft 296 kts 126°
2026-04-26 12:39 51.19676 1.28240 22729 ft 298 kts 126°
2026-04-26 12:39 51.18482 1.30923 22984 ft 299 kts 126°
2026-04-26 12:39 51.17275 1.33630 23235 ft 300 kts 126°
2026-04-26 12:40 51.16341 1.36541 23402 ft 302 kts 101°
2026-04-26 12:40 51.16078 1.39870 23623 ft 303 kts 93°
2026-04-26 12:40 51.15918 1.43205 23857 ft 304 kts 92°
2026-04-26 12:40 51.15759 1.46537 24066 ft 305 kts 92°
2026-04-26 12:41 51.15598 1.49914 24293 ft 306 kts 92°
2026-04-26 12:41 51.15435 1.53279 24486 ft 308 kts 92°
2026-04-26 12:41 51.15271 1.56674 24702 ft 309 kts 92°
2026-04-26 12:41 51.15103 1.60097 24896 ft 311 kts 92°
2026-04-26 12:42 51.14936 1.63494 25108 ft 312 kts 92°
2026-04-26 12:42 51.14765 1.66945 25277 ft 314 kts 93°
2026-04-26 12:42 51.14591 1.70423 25295 ft 317 kts 93°
2026-04-26 12:42 51.14414 1.73928 25301 ft 322 kts 93°
2026-04-26 12:43 51.14230 1.77547 25311 ft 327 kts 93°
2026-04-26 12:43 51.14046 1.81153 25309 ft 332 kts 93°
2026-04-26 12:43 51.13858 1.84833 25315 ft 336 kts 93°
2026-04-26 12:43 51.13669 1.88504 25319 ft 339 kts 93°
2026-04-26 12:44 51.13474 1.92272 25320 ft 342 kts 93°
2026-04-26 12:44 51.13277 1.96059 25320 ft 345 kts 93°
2026-04-26 12:44 51.13078 1.99843 25320 ft 347 kts 93°
2026-04-26 12:44 51.12876 2.03692 25319 ft 350 kts 93°
2026-04-26 12:45 51.12672 2.07536 25322 ft 352 kts 93°
2026-04-26 12:45 51.12464 2.11423 25323 ft 354 kts 93°
2026-04-26 12:45 51.12257 2.15286 25311 ft 355 kts 93°
2026-04-26 12:45 51.12045 2.19191 25321 ft 357 kts 93°
2026-04-26 12:46 51.11831 2.23112 25320 ft 358 kts 93°
2026-04-26 12:46 51.11616 2.27071 25319 ft 359 kts 93°
2026-04-26 12:46 51.11398 2.31024 25318 ft 360 kts 93°
2026-04-26 12:46 51.11179 2.34983 25314 ft 361 kts 93°
2026-04-26 12:47 51.10957 2.38972 25313 ft 362 kts 93°
2026-04-26 12:47 51.10735 2.42940 25316 ft 362 kts 93°
2026-04-26 12:47 51.10509 2.46908 25309 ft 363 kts 93°
2026-04-26 12:47 51.10283 2.50901 25310 ft 363 kts 93°
2026-04-26 12:48 51.10055 2.54899 25308 ft 364 kts 93°
2026-04-26 12:48 51.09826 2.58889 25311 ft 364 kts 93°
2026-04-26 12:48 51.09596 2.62880 25309 ft 365 kts 93°
2026-04-26 12:48 51.09169 2.66861 25316 ft 366 kts 104°
2026-04-26 12:49 51.08468 2.70765 25314 ft 366 kts 105°
2026-04-26 12:49 51.07756 2.74659 25306 ft 367 kts 105°
2026-04-26 12:49 51.07046 2.78557 25307 ft 367 kts 105°
2026-04-26 12:49 51.06338 2.82451 25311 ft 367 kts 105°
2026-04-26 12:50 51.05626 2.86360 25310 ft 367 kts 105°
2026-04-26 12:50 51.04915 2.90260 25309 ft 367 kts 105°
2026-04-26 12:50 51.04207 2.94143 25307 ft 368 kts 105°
2026-04-26 12:50 51.03495 2.98032 25303 ft 368 kts 105°
2026-04-26 12:51 51.02782 3.01921 25308 ft 368 kts 105°
2026-04-26 12:51 51.02070 3.05802 25304 ft 368 kts 105°
2026-04-26 12:51 51.01356 3.09681 25302 ft 368 kts 105°
2026-04-26 12:51 51.00642 3.13551 25301 ft 368 kts 105°
2026-04-26 12:52 50.99925 3.17428 25301 ft 368 kts 105°
2026-04-26 12:52 50.99202 3.21322 25300 ft 368 kts 105°
2026-04-26 12:52 50.98480 3.25209 25299 ft 368 kts 105°
2026-04-26 12:52 50.97754 3.29106 25301 ft 368 kts 105°
2026-04-26 12:53 50.97031 3.32990 25297 ft 368 kts 104°
2026-04-26 12:53 50.96305 3.36877 25293 ft 368 kts 104°
2026-04-26 12:53 50.95577 3.40762 25294 ft 368 kts 104°
2026-04-26 12:53 50.94853 3.44627 25295 ft 368 kts 104°
2026-04-26 12:54 50.94130 3.48470 25291 ft 368 kts 104°
2026-04-26 12:54 50.93391 3.52389 25295 ft 368 kts 104°
2026-04-26 12:54 50.92661 3.56264 25298 ft 368 kts 105°
2026-04-26 12:54 50.91937 3.60086 25293 ft 368 kts 105°
2026-04-26 12:55 50.91197 3.63984 25297 ft 368 kts 105°
2026-04-26 12:55 50.90460 3.67826 25290 ft 368 kts 105°
2026-04-26 12:55 50.89706 3.71740 25280 ft 369 kts 105°
2026-04-26 12:55 50.88953 3.75644 25285 ft 368 kts 105°
2026-04-26 12:56 50.88215 3.79468 25285 ft 368 kts 105°
2026-04-26 12:56 50.87460 3.83374 25286 ft 368 kts 105°
2026-04-26 12:56 50.86709 3.87249 25284 ft 368 kts 105°
2026-04-26 12:56 50.85957 3.91118 25281 ft 367 kts 105°
2026-04-26 12:57 50.85207 3.94970 25282 ft 367 kts 105°
2026-04-26 12:57 50.84452 3.98838 25286 ft 367 kts 105°
2026-04-26 12:57 50.83692 4.02725 25287 ft 367 kts 105°
2026-04-26 12:58 50.82181 4.10432 25285 ft 367 kts 105°
2026-04-26 12:58 50.81425 4.14273 25282 ft 367 kts 105°
2026-04-26 12:58 50.80677 4.18065 25274 ft 367 kts 105°
2026-04-26 12:58 50.79912 4.21943 25275 ft 367 kts 105°
2026-04-26 12:59 50.79155 4.25770 25277 ft 367 kts 105°
2026-04-26 12:59 50.78403 4.29564 25279 ft 367 kts 105°
2026-04-26 12:59 50.77636 4.33422 25280 ft 367 kts 105°
2026-04-26 12:59 50.76881 4.37224 25276 ft 367 kts 105°
2026-04-26 13:00 50.76112 4.41083 25279 ft 367 kts 105°
2026-04-26 13:00 50.75351 4.44884 25281 ft 367 kts 105°
2026-04-26 13:00 50.74575 4.48758 25283 ft 367 kts 105°
2026-04-26 13:00 50.73809 4.52575 25278 ft 367 kts 105°
2026-04-26 13:01 50.73036 4.56422 25280 ft 367 kts 105°
2026-04-26 13:01 50.72268 4.60246 25277 ft 367 kts 104°
2026-04-26 13:01 50.71530 4.64054 25274 ft 367 kts 104°
2026-04-26 13:01 50.70789 4.67887 25268 ft 367 kts 105°
2026-04-26 13:02 50.70039 4.71762 25263 ft 367 kts 105°
2026-04-26 13:02 50.69282 4.75664 25266 ft 367 kts 105°
2026-04-26 13:02 50.68541 4.79477 25267 ft 367 kts 105°
2026-04-26 13:02 50.67790 4.83329 25261 ft 367 kts 105°
2026-04-26 13:03 50.67033 4.87205 25264 ft 367 kts 105°
2026-04-26 13:03 50.66110 4.90952 25259 ft 369 kts 121°
2026-04-26 13:03 50.64462 4.94057 25277 ft 370 kts 134°
2026-04-26 13:03 50.62653 4.96912 25266 ft 370 kts 135°
2026-04-26 13:04 50.60815 4.99771 25265 ft 370 kts 135°
2026-04-26 13:04 50.58994 5.02593 25267 ft 371 kts 135°
2026-04-26 13:04 50.57158 5.05438 25266 ft 371 kts 135°
2026-04-26 13:04 50.55338 5.08251 25262 ft 371 kts 135°
2026-04-26 13:05 50.53486 5.11112 25263 ft 371 kts 135°
2026-04-26 13:05 50.51664 5.13922 25262 ft 371 kts 135°
2026-04-26 13:05 50.49821 5.16759 25262 ft 371 kts 135°
2026-04-26 13:05 50.47991 5.19577 25262 ft 371 kts 135°
2026-04-26 13:06 50.46140 5.22423 25260 ft 371 kts 135°
2026-04-26 13:06 50.44321 5.25217 25258 ft 371 kts 135°
2026-04-26 13:06 50.42483 5.28035 25260 ft 371 kts 135°
2026-04-26 13:06 50.40647 5.30848 25253 ft 371 kts 135°
2026-04-26 13:07 50.38801 5.33673 25250 ft 371 kts 135°
2026-04-26 13:07 50.36966 5.36476 25255 ft 371 kts 135°
2026-04-26 13:07 50.35112 5.39306 25251 ft 371 kts 135°
2026-04-26 13:07 50.33287 5.42091 25253 ft 371 kts 135°
2026-04-26 13:08 50.31448 5.44892 25252 ft 371 kts 135°
2026-04-26 13:08 50.29588 5.47724 25253 ft 371 kts 135°
2026-04-26 13:08 50.27747 5.50521 25253 ft 371 kts 135°
2026-04-26 13:08 50.25925 5.53287 25248 ft 371 kts 135°
2026-04-26 13:09 50.24079 5.56086 25243 ft 371 kts 135°
2026-04-26 13:09 50.22232 5.58881 25240 ft 371 kts 135°
2026-04-26 13:09 50.20366 5.61705 25242 ft 371 kts 135°
2026-04-26 13:09 50.18535 5.64473 25246 ft 370 kts 135°
2026-04-26 13:10 50.16698 5.67245 25239 ft 370 kts 135°
2026-04-26 13:10 50.14841 5.70045 25240 ft 370 kts 135°
2026-04-26 13:10 50.12969 5.72864 25237 ft 370 kts 135°
2026-04-26 13:10 50.11103 5.75669 25233 ft 370 kts 135°
2026-04-26 13:11 50.09249 5.78458 25233 ft 370 kts 135°
2026-04-26 13:11 50.07426 5.81194 25241 ft 370 kts 135°
2026-04-26 13:11 50.05567 5.83983 25241 ft 370 kts 135°
2026-04-26 13:11 50.03697 5.86785 25244 ft 369 kts 135°
2026-04-26 13:12 50.01849 5.89553 25245 ft 369 kts 135°
2026-04-26 13:12 49.99994 5.92327 25246 ft 369 kts 135°
2026-04-26 13:12 49.98158 5.95068 25248 ft 369 kts 135°
2026-04-26 13:12 49.96291 5.97853 25243 ft 369 kts 135°
2026-04-26 13:13 49.94452 6.00592 25246 ft 369 kts 135°
2026-04-26 13:13 49.92596 6.03353 25249 ft 369 kts 135°
2026-04-26 13:13 49.90730 6.06126 25247 ft 369 kts 135°
2026-04-26 13:13 49.88886 6.08862 25240 ft 369 kts 135°
2026-04-26 13:14 49.87032 6.11616 25235 ft 369 kts 134°
2026-04-26 13:14 49.85521 6.14780 25249 ft 365 kts 118°
2026-04-26 13:14 49.84324 6.18246 25243 ft 365 kts 116°
2026-04-26 13:14 49.83143 6.21749 25243 ft 365 kts 116°
2026-04-26 13:15 49.81966 6.25221 25242 ft 365 kts 116°
2026-04-26 13:15 49.80776 6.28723 25242 ft 365 kts 116°
2026-04-26 13:15 49.79581 6.32233 25242 ft 365 kts 116°
2026-04-26 13:15 49.78411 6.35666 25244 ft 365 kts 116°
2026-04-26 13:16 49.77225 6.39143 25237 ft 365 kts 116°
2026-04-26 13:16 49.76066 6.42529 25235 ft 365 kts 116°
2026-04-26 13:16 49.74866 6.46037 25236 ft 365 kts 116°
2026-04-26 13:16 49.73683 6.49489 25235 ft 365 kts 116°
2026-04-26 13:17 49.71308 6.56421 25233 ft 365 kts 116°
2026-04-26 13:17 49.70134 6.59849 25233 ft 365 kts 116°
2026-04-26 13:18 49.67755 6.66773 25232 ft 366 kts 117°
2026-04-26 13:18 49.66562 6.70241 25233 ft 365 kts 117°
2026-04-26 13:18 49.64179 6.77152 25228 ft 365 kts 117°
2026-04-26 13:19 49.63264 6.79808 25227 ft 365 kts 117°
2026-04-26 13:19 49.62079 6.83235 25227 ft 365 kts 117°
2026-04-26 13:19 49.60882 6.86692 25231 ft 365 kts 117°
2026-04-26 13:19 49.59671 6.90182 25228 ft 365 kts 117°
2026-04-26 13:20 49.58485 6.93597 25228 ft 365 kts 117°
2026-04-26 13:20 49.57273 6.97083 25227 ft 365 kts 117°
2026-04-26 13:20 49.56082 7.00503 25228 ft 365 kts 117°
2026-04-26 13:20 49.54888 7.03926 25232 ft 364 kts 117°
2026-04-26 13:21 49.53695 7.07341 25233 ft 364 kts 118°
2026-04-26 13:21 49.52896 7.09626 25230 ft 365 kts 118°
2026-04-26 13:21 49.51288 7.14218 25227 ft 365 kts 118°
2026-04-26 13:21 49.50100 7.17605 25228 ft 365 kts 118°
2026-04-26 13:22 49.48898 7.21031 25228 ft 365 kts 118°
2026-04-26 13:22 49.47681 7.24489 25230 ft 365 kts 118°
2026-04-26 13:22 49.46483 7.27892 25228 ft 365 kts 118°
2026-04-26 13:22 49.45280 7.31303 25110 ft 368 kts 118°
2026-04-26 13:23 49.44053 7.34782 24963 ft 367 kts 118°
2026-04-26 13:23 49.42856 7.38172 24485 ft 363 kts 118°
2026-04-26 13:23 49.41660 7.41556 23907 ft 355 kts 118°
2026-04-26 13:23 49.40499 7.44833 23296 ft 348 kts 118°
2026-04-26 13:24 49.39351 7.48066 22675 ft 342 kts 118°
2026-04-26 13:24 49.38237 7.51204 22075 ft 337 kts 118°
2026-04-26 13:24 49.37122 7.54340 21475 ft 332 kts 118°
2026-04-26 13:24 49.36036 7.57388 20898 ft 327 kts 118°
2026-04-26 13:25 49.34952 7.60433 20300 ft 321 kts 118°
2026-04-26 13:25 49.33901 7.63384 19713 ft 316 kts 118°
2026-04-26 13:25 49.32852 7.66320 19123 ft 311 kts 119°
2026-04-26 13:25 49.31836 7.69158 18551 ft 305 kts 119°
2026-04-26 13:26 49.30818 7.72001 17982 ft 301 kts 119°
2026-04-26 13:26 49.29818 7.74791 17422 ft 296 kts 119°
2026-04-26 13:26 49.28512 7.77108 16876 ft 288 kts 148°
2026-04-26 13:26 49.26665 7.77997 16367 ft 278 kts 182°
2026-04-26 13:27 49.24818 7.77273 15615 ft 278 kts 213°
2026-04-26 13:27 49.23499 7.75170 14798 ft 277 kts 243°
2026-04-26 13:27 49.22908 7.72431 14256 ft 270 kts 262°
2026-04-26 13:27 49.22719 7.69600 13700 ft 266 kts 268°
2026-04-26 13:28 49.22641 7.66829 13184 ft 261 kts 270°
2026-04-26 13:28 49.22596 7.64080 12676 ft 257 kts 270°
2026-04-26 13:28 49.22561 7.61388 12180 ft 253 kts 270°
2026-04-26 13:28 49.22527 7.58734 11694 ft 249 kts 271°
2026-04-26 13:29 49.22495 7.56120 11229 ft 245 kts 271°
2026-04-26 13:29 49.22474 7.54376 10814 ft 247 kts 271°
2026-04-26 13:29 49.22430 7.50893 9994 ft 250 kts 271°
2026-04-26 13:29 49.22396 7.48241 9380 ft 251 kts 271°
2026-04-26 13:30 49.22361 7.45598 8773 ft 252 kts 271°
2026-04-26 13:30 49.22327 7.42938 8156 ft 252 kts 271°
2026-04-26 13:30 49.22646 7.40349 7529 ft 247 kts 302°
2026-04-26 13:30 49.23865 7.38638 6933 ft 240 kts 339°
2026-04-26 13:31 49.25459 7.38428 6344 ft 236 kts 16°
2026-04-26 13:31 49.26779 7.39788 5842 ft 230 kts 55°
2026-04-26 13:31 49.27255 7.42048 5428 ft 224 kts 84°
2026-04-26 13:31 49.27275 7.44393 4988 ft 221 kts 101°
2026-04-26 13:32 49.26472 7.46269 4745 ft 213 kts 144°
2026-04-26 13:32 49.25052 7.46805 4533 ft 221 kts 185°
2026-04-26 13:32 49.23612 7.45948 4316 ft 228 kts 219°
2026-04-26 13:32 49.22699 7.43977 4092 ft 231 kts 256°
2026-04-26 13:33 49.22444 7.41599 4018 ft 226 kts 265°
2026-04-26 13:33 49.22309 7.39224 3806 ft 221 kts 268°
2026-04-26 13:33 49.22216 7.36912 3558 ft 213 kts 269°
2026-04-26 13:33 49.22145 7.34760 3497 ft 195 kts 268°
2026-04-26 13:34 49.22075 7.32789 3498 ft 175 kts 269°
2026-04-26 13:34 49.22020 7.31020 3429 ft 167 kts 269°
2026-04-26 13:34 49.21972 7.29259 3225 ft 167 kts 270°
2026-04-26 13:34 49.21940 7.28076 3085 ft 167 kts 270°
2026-04-26 13:35 49.21878 7.25691 2790 ft 167 kts 268°
2026-04-26 13:35 49.21827 7.23950 2573 ft 162 kts 267°
2026-04-26 13:35 49.21785 7.22280 2373 ft 154 kts 268°
2026-04-26 13:35 49.21738 7.20679 2161 ft 149 kts 266°
2026-04-26 13:36 49.21697 7.19149 1969 ft 139 kts 266°
2026-04-26 13:36 49.21650 7.17714 1781 ft 132 kts 265°
2026-04-26 13:36 49.21608 7.16345 1610 ft 127 kts 263°
2026-04-26 13:36 49.21579 7.15023 1448 ft 124 kts 264°
2026-04-26 13:37 49.21536 7.13670 1284 ft 128 kts 268°
2026-04-26 13:37 49.21495 7.12316 1096 ft 129 kts 268°
2026-04-26 13:37 49.21463 7.11069 1056 ft 83 kts 267°
2026-04-26 13:37 49.21450 7.10690 1050 ft 13 kts 274°
2026-04-26 13:38 49.21444 7.10638 1049 ft 1 kts 172°
2026-04-26 13:38 49.21437 7.10689 1050 ft 12 kts 92°
2026-04-26 13:38 49.21439 7.10879 1054 ft 16 kts 89°
2026-04-26 13:38 49.21444 7.10996 1055 ft 6 kts 68°
2026-04-26 13:39 49.21481 7.11035 1056 ft 11 kts 15°
2026-04-26 13:39 49.21578 7.11081 1057 ft 13 kts 18°
2026-04-26 13:39 49.21653 7.11119 1057 ft 9 kts 18°
2026-04-26 13:39 49.21721 7.11154 1058 ft 13 kts 18°
2026-04-26 13:40 49.21773 7.11217 1059 ft 9 kts 76°
2026-04-26 13:40 49.21799 7.11246 1059 ft 5 kts 346°
2026-04-26 13:40 49.21831 7.11233 1060 ft 0 kts 345°